Powrót do katalogu

STARLINK-36692

AktywnyŁącznośćSSO
NORAD 67744·PAYLOAD·🇺🇸 United States

Wystrzelony Feb 11, 2026 z Vandenberg Space Force Base

Loading…

Następne Przeloty (najbliższe 24 godziny)

TLE

ŚwieżeSource: CelesTrak SupGP

Epoka: Sep 14, 2026, 21:14 UTC

1 67744C 26026Z   26257.88520833 -.00013735  00000+0 -42547-3 0  2575
2 67744  97.2842 309.8519 0000918  67.2123 293.0454 15.33513550    15

Śledź STARLINK-36692 w czasie rzeczywistym z AllMySat

Download on the App Store